Location: Seven Kings
(51.5667°N, 0.1000°E)
Time: 01:52:11
(UTC+00:00)

H-2A R/B - Pass Details

Date: 29 October 2020
Orbit: 733 x 837 km, 98.2° (Epoch: 27 November)

Event Time Altitude Azimuth Distance (km) Brightness Sun altitude
Rises 17:58:00 0° 140° (SE) 3,366 5.0 -13.0°
Reaches altitude 10° 18:00:27 10° 133° (SE) 2,443 4.2 -13.4°
Maximum altitude 18:05:30 41° 65° (ENE) 1,199 2.6 -14.2°
Drops below altitude 10° 18:10:36 10° 357° (N) 2,460 4.6 -15.0°
Sets 18:13:04 0° 350° (N) 3,393 5.4 -15.4°
